QPF
0.01 0.00 0.00 0.01 0.00 0.01 0.01 0.01 0.01 0.00 0.00 0.03 0.03 0.03 0.06 0.06 0.01 0.00 0.00 0.00 0.00 0.00 0.01 0.01 0.02 0.06 0.04 0.01 0.00 0.00 0.00 0.00 0.00 0.00 0.00 0.00 0.00 0.00 0.00 0.00 0.00 0.00 0.00 0.00 0.00 0.00 0.00
0.01 0.01 0.00 0.01 0.01 0.01 0.01 0.01 0.01 0.01 0.00 0.02 0.04 0.05 0.06 0.05 0.02 0.00 0.00 0.00 0.00 0.00 0.00 0.00 0.01 0.06 0.05 0.02 0.00 0.00 0.00 0.00 0.00 0.00 0.00 0.00 0.00 0.00 0.00 0.00 0.00 0.00 0.00 0.00 0.00 0.00 0.00
0.01 0.02 0.00 0.01 0.01 0.01 0.01 0.01 0.02 0.01 0.01 0.03 0.05 0.04 0.02 0.03 0.04 0.00 0.00 0.00 0.00 0.00 0.00 0.00 0.02 0.04 0.07 0.03 0.00 0.00 0.00 0.00 0.00 0.00 0.00 0.00 0.00 0.00 0.00 0.00 0.00 0.00 0.00 0.00 0.00 0.00 0.00
0.02 0.02 0.01 0.01 0.01 0.01 0.01 0.01 0.02 0.02 0.01 0.01 0.01 0.01 0.01 0.00 0.00 0.00 0.00 0.00 0.00 0.00 0.00 0.00 0.02 0.06 0.04 0.00 0.00 0.00 0.00 0.00 0.00 0.00 0.00 0.00 0.00 0.00 0.00 0.00 0.00 0.00 0.00 0.00 0.00 0.00 0.00
0.01 0.01 0.01 0.01 0.01 0.01 0.01 0.02 0.01 0.02 0.02 0.02 0.02 0.01 0.01 0.00 0.00 0.00 0.00 0.00 0.00 0.00 0.00 0.00 0.03 0.04 0.02 0.00 0.00 0.00 0.00 0.00 0.00 0.00 0.00 0.00 0.00 0.00 0.00 0.00 0.00 0.00 0.00 0.00 0.00 0.00 0.00
0.01 0.00 0.01 0.01 0.01 0.01 0.01 0.02 0.02 0.03 0.02 0.02 0.02 0.01 0.01 0.00 0.00 0.00 0.00 0.00 0.00 0.00 0.00 0.01 0.03 0.03 0.02 0.01 0.00 0.00 0.00 0.00 0.00 0.00 0.00 0.00 0.00 0.00 0.00 0.00 0.00 0.00 0.00 0.00 0.00 0.00 0.00
0.01 0.01 0.01 0.01 0.01 0.00 0.01 0.01 0.03 0.04 0.03 0.02 0.02 0.01 0.01 0.00 0.00 0.00 0.00 0.00 0.00 0.00 0.00 0.00 0.01 0.02 0.02 0.01 0.00 0.00 0.00 0.00 0.00 0.00 0.00 0.00 0.00 0.00 0.00 0.00 0.00 0.00 0.00 0.00 0.00 0.00 0.00
0.02 0.02 0.02 0.02 0.01 0.00 0.00 0.00 0.01 0.02 0.03 0.03 0.02 0.01 0.01 0.00 0.00 0.00 0.00 0.00 0.00 0.00 0.00 0.00 0.00 0.01 0.02 0.05 0.00 0.00 0.00 0.00 0.00 0.00 0.00 0.00 0.00 0.00 0.00 0.00 0.00 0.00 0.00 0.00 0.00 0.00 0.00
0.02 0.02 0.02 0.03 0.02 0.01 0.00 0.00 0.00 0.01 0.02 0.02 0.01 0.01 0.00 0.00 0.00 0.00 0.00 0.00 0.00 0.00 0.00 0.00 0.00 0.00 0.05 0.16 0.04 0.00 0.00 0.00 0.00 0.00 0.00 0.00 0.00 0.00 0.00 0.00 0.00 0.00 0.00 0.00 0.00 0.00 0.00
0.01 0.02 0.02 0.03 0.04 0.02 0.02 0.01 0.01 0.01 0.01 0.01 0.00 0.00 0.00 0.00 0.00 0.00 0.00 0.00 0.00 0.00 0.01 0.01 0.02 0.01 0.05 0.18 0.08 0.00 0.01 0.00 0.00 0.00 0.00 0.00 0.00 0.00 0.00 0.00 0.00 0.00 0.00 0.00 0.00 0.00 0.00
0.00 0.00 0.01 0.03 0.03 0.03 0.03 0.02 0.02 0.02 0.01 0.00 0.00 0.00 0.00 0.00 0.00 0.00 0.00 0.00 0.00 0.01 0.02 0.11 0.13 0.09 0.07 0.22 0.12 0.00 0.01 0.00 0.00 0.00 0.00 0.00 0.00 0.00 0.00 0.00 0.00 0.00 0.00 0.00 0.00 0.00 0.00
0.00 0.00 0.00 0.01 0.02 0.03 0.02 0.02 0.02 0.02 0.01 0.00 0.00 0.00 0.00 0.00 0.00 0.00 0.00 0.00 0.00 0.00 0.04 0.06 0.09 0.10 0.13 0.30 0.17 0.00 0.02 0.01 0.00 0.00 0.00 0.00 0.00 0.00 0.00 0.00 0.00 0.00 0.00 0.00 0.00 0.00 0.00
0.00 0.00 0.00 0.00 0.01 0.01 0.01 0.01 0.01 0.01 0.01 0.00 0.00 0.00 0.00 0.00 0.00 0.00 0.00 0.00 0.00 0.00 0.01 0.02 0.01 0.03 0.09 0.21 0.31 0.04 0.02 0.03 0.00 0.00 0.00 0.00 0.00 0.00 0.00 0.00 0.00 0.00 0.00 0.00 0.00 0.00 0.00
0.00 0.00 0.00 0.00 0.00 0.01 0.00 0.00 0.00 0.00 0.00 0.00 0.00 0.00 0.00 0.00 0.00 0.00 0.00 0.00 0.00 0.00 0.03 0.01 0.00 0.00 0.03 0.10 0.27 0.16 0.01 0.03 0.00 0.00 0.00 0.00 0.00 0.00 0.00 0.00 0.00 0.00 0.00 0.00 0.00 0.00 0.00
0.00 0.00 0.00 0.00 0.00 0.00 0.00 0.00 0.00 0.00 0.00 0.00 0.00 0.00 0.00 0.00 0.00 0.00 0.00 0.00 0.01 0.04 0.08 0.01 0.00 0.00 0.02 0.15 0.25 0.26 0.03 0.00 0.00 0.00 0.00 0.00 0.00 0.00 0.00 0.00 0.00 0.00 0.00 0.00 0.00 0.00 0.00
0.00 0.00 0.00 0.00 0.00 0.00 0.00 0.00 0.00 0.00 0.00 0.00 0.00 0.00 0.01 0.00 0.00 0.00 0.00 0.00 0.00 0.00 0.00 0.01 0.01 0.00 0.03 0.08 0.14 0.39 0.12 0.00 0.00 0.00 0.00 0.00 0.00 0.00 0.00 0.00 0.00 0.00 0.00 0.00 0.00 0.00 0.00
0.00 0.00 0.00 0.00 0.00 0.00 0.00 0.00 0.00 0.00 0.00 0.00 0.00 0.00 0.00 0.00 0.00 0.00 0.00 0.00 0.00 0.00 0.00 0.00 0.01 0.01 0.04 0.04 0.07 0.20 0.20 0.00 0.00 0.00 0.00 0.00 0.00 0.00 0.00 0.00 0.00 0.00 0.00 0.00 0.00 0.00 0.00
0.00 0.00 0.00 0.00 0.00 0.00 0.00 0.00 0.00 0.00 0.00 0.00 0.00 0.00 0.00 0.00 0.00 0.00 0.00 0.00 0.00 0.00 0.00 0.00 0.02 0.01 0.02 0.03 0.04 0.06 0.10 0.01 0.00 0.00 0.00 0.00 0.00 0.00 0.00 0.00 0.00 0.00 0.00 0.00 0.00 0.00 0.00
0.00 0.00 0.00 0.00 0.00 0.00 0.00 0.00 0.00 0.00 0.00 0.00 0.00 0.00 0.00 0.00 0.00 0.00 0.00 0.00 0.00 0.00 0.01 0.01 0.02 0.04 0.05 0.01 0.02 0.03 0.02 0.01 0.01 0.01 0.01 0.00 0.00 0.00 0.00 0.00 0.00 0.00 0.00 0.00 0.00 0.00 0.00
0.00 0.00 0.00 0.00 0.00 0.00 0.00 0.00 0.00 0.00 0.00 0.00 0.00 0.00 0.00 0.00 0.00 0.00 0.00 0.00 0.00 0.00 0.00 0.00 0.00 0.00 0.00 0.00 0.03 0.01 0.00 0.01 0.03 0.02 0.04 0.02 0.02 0.00 0.00 0.00 0.00 0.00 0.00 0.00 0.00 0.00 0.00
0.00 0.00 0.00 0.00 0.00 0.00 0.00 0.00 0.00 0.00 0.00 0.00 0.00 0.00 0.01 0.00 0.00 0.00 0.00 0.01 0.00 0.00 0.00 0.00 0.00 0.00 0.00 0.00 0.00 0.00 0.01 0.03 0.01 0.00 0.01 0.08 0.15 0.01 0.00 0.00 0.00 0.00 0.00 0.00 0.00 0.00 0.00
0.00 0.00 0.00 0.00 0.00 0.00 0.00 0.00 0.00 0.00 0.00 0.00 0.00 0.01 0.01 0.00 0.00 0.00 0.00 0.00 0.00 0.00 0.01 0.00 0.00 0.00 0.00 0.01 0.00 0.00 0.00 0.02 0.03 0.04 0.02 0.02 0.06 0.03 0.01 0.00 0.00 0.00 0.00 0.00 0.00 0.00 0.00
0.00 0.00 0.00 0.00 0.00 0.00 0.00 0.00 0.00 0.00 0.00 0.00 0.00 0.00 0.02 0.00 0.00 0.00 0.00 0.00 0.00 0.01 0.01 0.00 0.01 0.03 0.00 0.00 0.00 0.00 0.00 0.00 0.01 0.09 0.15 0.12 0.04 0.01 0.02 0.00 0.00 0.00 0.00 0.00 0.00 0.00 0.00
0.00 0.00 0.00 0.00 0.00 0.00 0.00 0.00 0.00 0.00 0.00 0.00 0.00 0.00 0.02 0.01 0.00 0.00 0.00 0.00 0.00 0.00 0.02 0.00 0.00 0.04 0.00 0.00 0.00 0.00 0.00 0.00 0.00 0.00 0.06 0.11 0.05 0.00 0.00 0.00 0.03 0.01 0.00 0.00 0.00 0.00 0.00
0.00 0.00 0.00 0.00 0.00 0.00 0.00 0.00 0.00 0.00 0.00 0.00 0.00 0.00 0.03 0.01 0.00 0.00 0.00 0.00 0.00 0.00 0.00 0.00 0.01 0.04 0.03 0.02 0.01 0.01 0.01 0.01 0.00 0.00 0.00 0.02 0.05 0.07 0.06 0.02 0.02 0.00 0.00 0.00 0.00 0.00 0.00
0.00 0.00 0.00 0.00 0.00 0.00 0.00 0.00 0.00 0.00 0.00 0.00 0.00 0.00 0.01 0.01 0.00 0.00 0.00 0.00 0.00 0.00 0.00 0.00 0.01 0.03 0.05 0.02 0.01 0.03 0.01 0.00 0.00 0.00 0.00 0.00 0.02 0.08 0.07 0.04 0.03 0.00 0.00 0.00 0.00 0.00 0.00
0.00 0.00 0.00 0.00 0.00 0.00 0.00 0.00 0.00 0.00 0.00 0.00 0.00 0.00 0.01 0.01 0.00 0.00 0.01 0.02 0.01 0.02 0.01 0.00 0.00 0.01 0.03 0.05 0.06 0.04 0.02 0.00 0.03 0.04 0.01 0.02 0.03 0.11 0.14 0.10 0.02 0.00 0.00 0.00 0.00 0.00 0.00
0.00 0.00 0.00 0.00 0.00 0.00 0.00 0.00 0.00 0.00 0.00 0.00 0.00 0.00 0.01 0.02 0.00 0.00 0.00 0.03 0.02 0.01 0.02 0.01 0.01 0.02 0.02 0.05 0.08 0.07 0.12 0.07 0.04 0.13 0.06 0.02 0.03 0.05 0.07 0.13 0.03 0.00 0.00 0.00 0.00 0.00 0.00
0.00 0.00 0.00 0.00 0.00 0.00 0.00 0.00 0.00 0.00 0.00 0.00 0.00 0.00 0.00 0.01 0.00 0.00 0.00 0.00 0.01 0.00 0.03 0.01 0.02 0.04 0.04 0.05 0.02 0.02 0.04 0.13 0.07 0.04 0.09 0.19 0.04 0.00 0.00 0.02 0.00 0.00 0.00 0.00 0.00 0.00 0.00
MSLP
1020.95 1020.47 1019.74 1019.16 1018.56 1017.99 1017.30 1016.68 1016.06 1015.51 1014.97 1014.61 1014.26 1014.02 1013.90 1013.80 1013.65 1013.39 1013.18 1012.93 1012.59 1012.54 1012.42 1011.98 1011.68 1012.21 1012.15 1011.06 1009.28 1007.55 1007.43 1007.76 1008.60 1009.36 1009.54 1009.85 1010.39 1010.71 1011.13 1011.12 1011.06 1011.05 1010.57 1010.01 1009.53 1009.38 1009.29
1021.15 1020.67 1020.14 1019.58 1018.82 1018.21 1017.55 1016.91 1016.32 1015.77 1015.19 1014.86 1014.58 1014.35 1014.07 1013.81 1013.54 1013.30 1013.06 1012.87 1012.59 1012.36 1012.19 1012.00 1011.81 1012.14 1012.48 1010.12 1008.23 1007.62 1007.38 1007.71 1008.32 1008.94 1009.26 1009.50 1009.70 1009.78 1010.34 1010.61 1010.71 1010.29 1010.36 1010.22 1009.96 1009.62 1009.87
1021.67 1021.03 1020.29 1019.85 1019.21 1018.44 1017.89 1017.24 1016.62 1016.06 1015.47 1015.02 1014.69 1014.44 1014.20 1013.83 1013.51 1013.16 1012.86 1012.53 1012.28 1012.10 1012.00 1011.77 1011.75 1011.80 1011.73 1010.43 1008.53 1008.00 1007.65 1007.71 1007.83 1008.26 1008.88 1009.04 1009.29 1009.59 1009.70 1010.31 1010.15 1010.50 1010.91 1010.67 1010.44 1009.99 1010.01
1022.06 1021.56 1020.88 1020.20 1019.46 1018.79 1018.10 1017.54 1016.98 1016.34 1015.75 1015.36 1014.98 1014.54 1014.22 1013.82 1013.45 1013.01 1012.59 1012.19 1011.80 1011.60 1011.55 1011.52 1011.42 1011.52 1011.04 1009.48 1008.47 1008.39 1008.26 1007.79 1008.04 1008.37 1008.60 1008.96 1009.02 1009.53 1009.66 1009.82 1010.29 1010.77 1011.44 1011.36 1010.64 1010.43 1010.39
1022.20 1021.64 1021.04 1020.45 1019.74 1019.00 1018.45 1017.77 1017.16 1016.69 1016.04 1015.49 1015.14 1014.77 1014.33 1013.86 1013.41 1012.96 1012.47 1011.77 1011.15 1010.92 1010.88 1011.05 1011.42 1011.08 1010.15 1008.81 1008.27 1007.57 1008.16 1008.03 1008.22 1008.61 1008.83 1008.89 1009.24 1009.56 1009.86 1010.33 1010.93 1011.09 1011.58 1011.50 1011.13 1010.86 1010.66
1022.48 1021.85 1021.22 1020.61 1020.05 1019.36 1018.65 1018.08 1017.50 1016.89 1016.39 1015.84 1015.34 1014.83 1014.34 1013.92 1013.44 1012.80 1012.20 1011.38 1010.66 1010.37 1010.63 1010.72 1011.00 1011.46 1009.99 1008.69 1007.72 1007.13 1007.28 1007.86 1008.10 1008.74 1009.29 1009.15 1009.44 1009.78 1010.24 1010.62 1010.18 1011.06 1011.47 1011.41 1011.18 1011.24 1011.26
1022.88 1022.24 1021.57 1021.00 1020.18 1019.56 1019.02 1018.32 1017.71 1017.06 1016.58 1016.10 1015.57 1015.08 1014.46 1013.88 1013.38 1012.80 1012.16 1011.61 1011.65 1011.55 1011.45 1011.08 1010.63 1009.57 1008.54 1008.62 1007.88 1006.86 1006.95 1007.57 1007.91 1008.39 1008.94 1009.18 1009.45 1008.86 1009.14 1010.00 1009.98 1010.35 1010.79 1011.30 1011.28 1010.88 1011.48
1023.26 1022.66 1021.92 1021.25 1020.51 1019.71 1019.09 1018.51 1017.82 1017.09 1016.56 1016.20 1015.68 1014.99 1014.43 1013.87 1013.27 1012.66 1012.63 1013.01 1013.76 1013.94 1012.40 1010.69 1010.58 1009.69 1009.14 1009.00 1008.34 1006.55 1006.60 1007.21 1007.55 1008.16 1008.82 1009.63 1008.47 1009.13 1009.51 1010.01 1010.20 1010.34 1010.70 1011.30 1011.36 1011.29 1011.75
1023.64 1023.00 1022.32 1021.53 1020.76 1020.01 1019.29 1018.57 1017.80 1017.08 1016.52 1016.10 1015.65 1015.00 1014.39 1013.81 1013.13 1012.97 1013.28 1013.61 1013.71 1013.61 1013.37 1011.10 1010.04 1009.68 1009.00 1008.98 1008.16 1006.18 1006.14 1006.31 1007.05 1008.04 1008.01 1008.20 1008.43 1009.23 1009.50 1009.79 1010.21 1010.34 1010.49 1011.16 1011.35 1011.86 1012.38
1024.10 1023.52 1022.71 1021.92 1021.17 1020.36 1019.63 1018.83 1018.06 1017.34 1016.56 1016.04 1015.43 1014.81 1014.25 1013.72 1013.50 1013.52 1013.53 1013.71 1013.55 1013.72 1013.33 1012.23 1010.40 1008.79 1008.64 1008.40 1007.36 1005.68 1005.68 1005.90 1006.75 1007.12 1008.05 1008.44 1008.51 1008.57 1009.04 1009.19 1009.37 1010.13 1010.29 1010.91 1011.64 1012.23 1013.14
1024.12 1023.68 1023.14 1022.54 1021.66 1020.86 1019.85 1019.02 1018.28 1017.54 1016.69 1015.96 1015.23 1014.50 1013.96 1013.65 1014.00 1013.85 1013.61 1013.49 1013.49 1013.75 1013.52 1012.86 1011.64 1010.97 1009.25 1008.52 1007.15 1005.06 1005.38 1005.72 1005.92 1006.30 1007.25 1007.53 1007.68 1007.80 1008.23 1008.11 1009.06 1009.64 1010.15 1011.16 1011.95 1012.80 1013.16
1024.53 1024.01 1023.53 1022.87 1022.01 1021.24 1020.27 1019.29 1018.42 1017.57 1016.64 1015.81 1014.84 1014.05 1013.49 1013.66 1013.81 1013.45 1013.15 1013.27 1013.66 1014.09 1013.17 1012.59 1011.79 1010.60 1009.56 1008.67 1007.82 1005.53 1005.38 1005.85 1005.84 1006.66 1007.20 1007.54 1007.43 1007.81 1007.39 1008.33 1008.82 1009.35 1010.65 1011.86 1012.93 1013.67 1013.67
1024.89 1024.14 1023.53 1022.82 1022.12 1021.45 1020.63 1019.66 1018.54 1017.64 1016.73 1015.73 1014.60 1013.84 1013.33 1013.48 1013.71 1013.06 1012.84 1013.35 1014.08 1013.93 1012.42 1012.12 1011.32 1010.28 1010.05 1009.41 1008.42 1006.78 1005.56 1005.72 1005.46 1006.13 1007.01 1007.50 1007.44 1006.91 1006.91 1008.17 1008.81 1009.20 1010.38 1012.75 1014.02 1014.32 1013.01
1025.16 1024.46 1023.64 1022.89 1022.30 1021.65 1020.63 1019.60 1018.82 1017.85 1016.84 1015.73 1014.52 1013.94 1013.78 1013.84 1013.48 1013.02 1013.34 1014.15 1014.65 1014.09 1013.01 1012.05 1011.18 1010.77 1010.35 1009.88 1008.60 1007.23 1005.94 1005.79 1005.84 1005.67 1006.53 1006.96 1007.61 1006.41 1006.00 1006.03 1006.55 1007.73 1008.81 1009.99 1011.68 1012.96 1013.03
1025.56 1024.75 1024.09 1023.34 1022.54 1021.77 1020.99 1019.86 1019.00 1017.97 1016.94 1015.78 1014.74 1014.56 1014.60 1014.20 1013.66 1013.52 1014.42 1015.32 1015.47 1014.58 1013.82 1012.37 1011.25 1010.62 1010.38 1010.06 1009.46 1007.69 1006.25 1005.64 1005.22 1005.10 1005.01 1005.51 1006.26 1006.01 1005.79 1005.62 1006.03 1007.58 1008.29 1008.63 1010.50 1012.06 1012.48
1026.01 1025.16 1024.31 1023.60 1022.81 1022.04 1021.21 1020.06 1019.18 1018.12 1017.08 1015.94 1015.76 1015.48 1015.15 1014.51 1014.09 1014.39 1015.46 1016.10 1015.36 1014.28 1013.56 1012.86 1012.24 1011.90 1011.48 1010.57 1009.77 1008.42 1006.57 1005.44 1005.13 1004.49 1004.11 1004.51 1005.92 1006.03 1005.89 1005.75 1006.09 1005.87 1006.72 1008.56 1009.75 1011.22 1011.61
1025.93 1025.38 1024.64 1023.77 1023.02 1022.13 1021.24 1020.29 1019.42 1018.34 1017.28 1016.11 1016.24 1016.17 1015.35 1014.69 1014.67 1015.65 1017.05 1016.83 1015.70 1014.30 1013.53 1013.09 1012.69 1012.06 1011.75 1011.14 1010.38 1009.38 1007.52 1005.63 1004.99 1004.41 1004.41 1004.25 1004.78 1006.69 1006.28 1005.45 1005.08 1006.12 1006.32 1007.13 1008.06 1009.53 1009.96
1026.22 1025.47 1024.85 1023.98 1023.15 1022.32 1021.38 1020.58 1019.68 1018.76 1017.57 1016.82 1016.92 1017.07 1015.85 1015.26 1016.50 1017.82 1018.02 1017.22 1016.08 1014.65 1013.68 1013.20 1013.05 1012.48 1011.87 1011.22 1010.36 1009.56 1008.62 1007.37 1005.64 1004.55 1004.60 1004.50 1004.66 1006.05 1005.84 1005.71 1005.29 1005.32 1005.55 1006.48 1007.41 1008.47 1008.96
1026.68 1025.90 1025.08 1024.49 1023.54 1022.69 1021.82 1020.79 1019.93 1019.04 1018.22 1017.89 1018.22 1018.15 1016.73 1016.50 1018.66 1019.41 1018.69 1017.48 1016.43 1015.31 1014.68 1013.75 1013.01 1012.76 1012.53 1011.84 1011.25 1010.34 1009.28 1008.23 1007.66 1006.08 1004.88 1004.57 1004.89 1005.96 1006.51 1006.34 1005.84 1005.31 1005.31 1005.36 1006.02 1006.92 1007.98
1026.91 1026.18 1025.49 1024.72 1023.91 1023.05 1022.21 1021.23 1020.23 1019.25 1018.52 1018.39 1019.07 1019.42 1019.10 1019.24 1020.02 1020.41 1019.72 1018.49 1017.30 1016.26 1015.33 1015.07 1014.02 1012.98 1013.12 1012.56 1012.11 1011.50 1010.17 1008.72 1008.26 1007.43 1006.52 1006.03 1005.44 1004.93 1004.59 1003.49 1004.98 1005.10 1004.77 1005.08 1005.81 1006.69 1006.97
1027.15 1026.28 1025.46 1024.69 1023.99 1023.19 1022.25 1021.37 1020.67 1019.88 1019.00 1019.13 1020.10 1020.80 1020.88 1021.40 1021.57 1021.57 1020.65 1019.72 1018.80 1017.81 1016.62 1015.63 1015.01 1014.75 1014.56 1014.11 1013.89 1012.23 1010.97 1009.76 1008.57 1007.51 1006.80 1006.91 1006.82 1006.20 1005.44 1004.91 1004.80 1004.65 1004.68 1005.05 1005.44 1005.18 1006.23
1027.21 1026.40 1025.63 1024.84 1024.10 1023.40 1022.76 1022.06 1021.15 1020.44 1019.77 1020.41 1021.43 1021.49 1021.28 1021.44 1021.82 1021.82 1021.27 1020.82 1019.74 1018.55 1017.61 1016.03 1015.58 1015.15 1015.15 1014.79 1013.77 1012.59 1011.77 1010.86 1010.21 1008.97 1007.84 1006.96 1007.40 1007.48 1006.98 1006.02 1005.12 1004.91 1004.47 1004.66 1004.49 1004.67 1004.96
1027.36 1026.60 1025.83 1025.08 1024.32 1023.64 1022.88 1022.15 1021.45 1020.81 1020.75 1021.27 1021.53 1021.61 1021.70 1021.70 1022.33 1022.56 1022.09 1021.04 1019.85 1018.96 1017.08 1016.25 1015.70 1015.21 1014.31 1013.19 1013.60 1013.17 1012.14 1011.69 1010.77 1010.62 1009.82 1008.56 1007.81 1008.14 1007.83 1006.95 1006.37 1005.71 1004.24 1003.62 1003.52 1004.04 1004.14
1027.48 1026.67 1025.97 1025.14 1024.28 1023.48 1022.96 1022.39 1021.84 1021.27 1020.98 1021.39 1021.65 1021.96 1021.80 1022.34 1022.51 1022.65 1021.83 1020.87 1019.65 1018.79 1017.97 1015.93 1015.56 1015.22 1013.78 1013.15 1012.58 1011.37 1011.14 1010.90 1010.56 1010.10 1010.18 1009.18 1008.18 1008.02 1007.90 1007.82 1006.68 1004.55 1003.73 1003.16 1003.24 1003.28 1003.71
1027.56 1026.88 1026.11 1025.33 1024.58 1023.88 1023.00 1022.20 1021.65 1021.39 1021.19 1021.64 1021.56 1021.96 1021.98 1022.34 1022.35 1022.06 1021.60 1020.81 1019.32 1018.07 1017.16 1016.23 1015.41 1014.90 1014.01 1013.81 1012.76 1011.48 1010.63 1010.15 1009.09 1008.61 1008.57 1008.80 1008.73 1007.90 1007.67 1007.58 1006.28 1005.08 1004.00 1003.37 1003.23 1002.88 1003.15
1027.78 1026.90 1026.28 1025.44 1024.68 1023.75 1023.13 1022.51 1021.84 1021.37 1021.15 1021.62 1021.69 1021.61 1021.90 1022.41 1021.90 1021.58 1021.32 1020.91 1020.08 1018.79 1017.22 1015.99 1014.80 1014.14 1013.74 1013.08 1012.59 1011.49 1009.64 1008.68 1008.23 1007.46 1007.49 1007.90 1007.84 1007.59 1007.28 1007.31 1006.35 1003.65 1003.43 1003.05 1003.75 1003.63 1002.94
1027.83 1027.00 1026.30 1025.59 1024.68 1024.00 1023.18 1022.54 1022.02 1021.58 1021.22 1021.63 1021.71 1021.31 1021.68 1022.06 1021.33 1021.17 1021.04 1020.69 1020.32 1019.47 1018.59 1017.13 1016.04 1014.42 1013.70 1013.37 1012.21 1010.65 1008.92 1007.75 1007.56 1007.07 1007.25 1007.27 1007.43 1007.36 1007.21 1007.27 1006.37 1005.02 1004.30 1003.58 1005.03 1003.45 1003.24
1027.78 1027.10 1026.34 1025.65 1024.84 1024.06 1023.38 1022.71 1022.23 1021.65 1021.39 1021.66 1021.79 1021.54 1021.62 1021.62 1021.00 1020.75 1020.63 1020.47 1020.25 1020.16 1019.51 1018.27 1016.94 1016.04 1015.10 1014.19 1013.73 1012.32 1010.29 1008.58 1008.17 1007.59 1007.24 1007.43 1008.01 1008.05 1008.18 1008.14 1007.98 1006.74 1005.79 1006.06 1005.54 1004.74 1004.74
1027.68 1027.07 1026.32 1025.65 1024.83 1024.06 1023.31 1022.73 1022.29 1021.82 1021.63 1021.53 1021.97 1021.41 1021.37 1021.75 1021.07 1020.62 1020.02 1019.70 1019.88 1019.92 1019.97 1019.21 1018.68 1017.68 1016.76 1016.28 1015.55 1014.31 1012.54 1010.67 1009.84 1009.33 1008.86 1009.98 1010.76 1009.60 1008.81 1008.99 1008.79 1008.65 1008.27 1007.94 1007.33 1006.53 1006.00
Thickness
5568 5560 5552 5539 5524 5508 5492 5479 5466 5452 5440 5431 5427 5427 5428 5428 5428 5430 5434 5441 5455 5469 5485 5505 5523 5533 5545 5565 5591 5621 5632 5638 5640 5642 5647 5650 5652 5653 5653 5659 5665 5668 5679 5690 5703 5706 5708
5560 5551 5540 5526 5512 5496 5480 5466 5451 5436 5426 5420 5417 5417 5417 5420 5423 5424 5427 5430 5436 5450 5468 5486 5504 5515 5526 5563 5591 5608 5621 5629 5633 5636 5642 5647 5652 5661 5656 5660 5663 5672 5675 5683 5690 5701 5702
5550 5541 5530 5516 5501 5485 5469 5452 5436 5422 5414 5411 5410 5410 5411 5414 5417 5420 5424 5428 5431 5436 5451 5472 5487 5501 5517 5543 5577 5590 5607 5616 5627 5634 5635 5644 5652 5652 5657 5656 5667 5667 5659 5672 5679 5690 5695
5540 5529 5519 5506 5491 5475 5458 5441 5422 5410 5406 5403 5402 5404 5406 5409 5412 5417 5423 5426 5431 5434 5440 5455 5470 5486 5506 5542 5563 5577 5590 5605 5615 5623 5630 5633 5643 5644 5650 5657 5655 5652 5646 5641 5670 5679 5689
5532 5522 5511 5497 5483 5467 5449 5431 5414 5401 5398 5398 5397 5397 5400 5404 5407 5412 5417 5425 5432 5435 5435 5444 5459 5478 5504 5531 5556 5574 5581 5590 5597 5607 5615 5624 5629 5628 5637 5630 5627 5636 5626 5640 5659 5671 5678
5525 5516 5505 5491 5476 5459 5442 5423 5405 5394 5390 5391 5391 5392 5395 5398 5402 5409 5414 5423 5431 5435 5433 5437 5449 5467 5494 5523 5549 5566 5573 5582 5589 5591 5596 5605 5609 5609 5610 5613 5618 5621 5631 5642 5649 5660 5669
5516 5508 5497 5484 5471 5454 5435 5417 5399 5388 5384 5383 5384 5386 5389 5394 5398 5403 5411 5417 5414 5420 5422 5432 5452 5475 5501 5509 5532 5552 5563 5567 5576 5581 5581 5593 5593 5609 5626 5622 5639 5643 5643 5644 5653 5662 5658
5509 5500 5490 5478 5466 5451 5432 5412 5396 5383 5378 5376 5377 5380 5385 5389 5395 5400 5402 5401 5398 5399 5408 5429 5433 5459 5485 5489 5509 5542 5550 5552 5563 5572 5574 5575 5598 5616 5617 5620 5631 5633 5633 5633 5648 5653 5651
5502 5494 5484 5474 5462 5447 5429 5411 5395 5382 5374 5371 5370 5374 5381 5386 5392 5394 5393 5394 5395 5397 5397 5421 5436 5449 5474 5483 5501 5533 5547 5557 5561 5560 5578 5586 5599 5601 5607 5608 5616 5620 5624 5627 5637 5639 5642
5497 5488 5479 5469 5456 5444 5427 5410 5393 5379 5371 5365 5365 5370 5377 5383 5386 5386 5389 5389 5392 5391 5396 5406 5429 5454 5467 5481 5495 5532 5544 5555 5552 5562 5570 5575 5587 5598 5601 5608 5619 5607 5627 5631 5625 5620 5605
5493 5484 5474 5463 5452 5440 5427 5410 5394 5378 5369 5363 5362 5369 5377 5381 5379 5381 5387 5388 5388 5387 5363 5402 5406 5418 5451 5469 5491 5525 5540 5545 5550 5564 5562 5573 5578 5591 5594 5614 5615 5611 5622 5621 5618 5613 5612
5488 5479 5469 5460 5449 5437 5425 5412 5397 5381 5371 5364 5366 5373 5381 5381 5380 5383 5387 5388 5384 5354 5378 5397 5401 5416 5445 5462 5476 5519 5529 5535 5552 5548 5555 5565 5578 5582 5598 5604 5608 5615 5607 5601 5595 5592 5580
5484 5477 5468 5459 5449 5436 5424 5412 5399 5384 5372 5368 5372 5378 5383 5382 5380 5385 5388 5386 5349 5355 5410 5404 5410 5424 5433 5448 5462 5498 5520 5522 5534 5532 5535 5552 5561 5586 5595 5585 5594 5602 5600 5556 5557 5556 5580
5480 5474 5467 5458 5448 5435 5426 5415 5400 5388 5377 5373 5377 5380 5381 5380 5383 5386 5383 5358 5340 5364 5390 5409 5417 5423 5435 5450 5466 5492 5518 5518 5527 5543 5536 5539 5537 5569 5587 5598 5601 5601 5602 5570 5557 5559 5579
5476 5471 5463 5454 5445 5436 5425 5417 5404 5392 5384 5379 5379 5378 5376 5379 5382 5382 5366 5332 5348 5378 5380 5397 5413 5417 5428 5443 5450 5474 5510 5520 5534 5540 5548 5551 5553 5574 5583 5601 5605 5583 5586 5608 5581 5578 5576
5472 5467 5462 5453 5445 5435 5426 5419 5409 5398 5389 5384 5375 5373 5372 5377 5380 5374 5347 5354 5363 5385 5389 5397 5401 5411 5416 5434 5449 5461 5498 5522 5527 5546 5561 5561 5549 5563 5575 5590 5592 5602 5613 5588 5572 5562 5572
5474 5467 5460 5454 5446 5438 5429 5421 5412 5403 5395 5389 5376 5369 5372 5376 5376 5359 5330 5342 5368 5382 5389 5392 5395 5405 5418 5426 5435 5451 5474 5515 5531 5543 5551 5558 5556 5544 5561 5568 5591 5578 5587 5591 5596 5575 5592
5471 5466 5460 5454 5447 5439 5431 5421 5414 5405 5398 5389 5375 5354 5371 5374 5349 5326 5324 5357 5373 5378 5385 5391 5393 5403 5412 5425 5439 5451 5467 5479 5516 5541 5539 5554 5552 5540 5555 5566 5580 5585 5601 5591 5589 5583 5572
5464 5461 5457 5451 5445 5438 5431 5424 5416 5409 5399 5388 5375 5358 5370 5368 5345 5345 5350 5361 5370 5377 5377 5384 5394 5402 5404 5420 5433 5446 5459 5476 5481 5504 5533 5546 5541 5526 5536 5549 5564 5579 5588 5606 5611 5593 5576
5462 5458 5453 5448 5444 5438 5431 5425 5419 5412 5404 5390 5364 5345 5353 5347 5340 5337 5350 5359 5367 5370 5377 5374 5386 5402 5399 5409 5425 5427 5450 5472 5470 5487 5508 5518 5530 5544 5549 5579 5564 5565 5580 5587 5587 5564 5586
5458 5457 5455 5452 5446 5440 5435 5429 5420 5413 5407 5392 5365 5361 5348 5320 5324 5325 5347 5352 5350 5349 5363 5371 5374 5383 5386 5381 5396 5423 5442 5448 5474 5493 5510 5511 5508 5524 5543 5558 5567 5568 5580 5576 5578 5598 5581
5457 5456 5453 5451 5446 5440 5433 5428 5421 5412 5407 5388 5362 5359 5344 5352 5323 5340 5323 5326 5327 5338 5352 5364 5357 5369 5373 5382 5390 5400 5420 5438 5450 5467 5489 5511 5502 5502 5507 5539 5554 5554 5569 5573 5582 5593 5594
5453 5453 5451 5448 5445 5439 5435 5430 5422 5414 5403 5386 5376 5361 5354 5342 5306 5314 5311 5343 5347 5349 5359 5367 5370 5368 5377 5398 5400 5405 5419 5430 5441 5443 5456 5469 5487 5493 5496 5517 5523 5522 5550 5570 5582 5579 5593
5451 5451 5449 5448 5446 5443 5436 5429 5422 5415 5407 5395 5382 5366 5360 5333 5320 5310 5325 5338 5347 5351 5352 5369 5369 5363 5380 5391 5402 5418 5419 5426 5435 5446 5452 5467 5488 5493 5506 5492 5501 5543 5558 5575 5578 5585 5588
5448 5446 5446 5444 5441 5438 5435 5432 5427 5417 5408 5395 5385 5369 5362 5342 5323 5329 5334 5328 5344 5354 5358 5361 5364 5365 5369 5375 5389 5400 5432 5440 5451 5457 5467 5469 5472 5491 5498 5508 5515 5529 5551 5560 5560 5575 5583
5442 5442 5440 5441 5440 5439 5434 5429 5426 5420 5410 5398 5387 5377 5364 5349 5333 5333 5333 5319 5338 5343 5345 5354 5370 5366 5366 5383 5383 5407 5449 5454 5454 5475 5471 5474 5476 5488 5492 5499 5506 5560 5561 5565 5554 5546 5575
5437 5437 5437 5436 5438 5435 5434 5429 5424 5418 5411 5400 5389 5382 5369 5356 5355 5339 5333 5335 5335 5342 5341 5337 5352 5363 5370 5373 5396 5429 5452 5464 5466 5484 5480 5481 5483 5489 5499 5500 5490 5520 5536 5551 5522 5565 5574
5435 5433 5433 5433 5434 5433 5430 5427 5421 5417 5410 5402 5391 5383 5373 5364 5359 5350 5344 5336 5330 5321 5334 5336 5349 5350 5356 5367 5376 5395 5433 5454 5442 5454 5482 5491 5487 5491 5488 5489 5494 5485 5513 5524 5530 5524 5535
5433 5431 5431 5431 5432 5432 5430 5426 5421 5414 5407 5401 5388 5383 5376 5366 5360 5355 5350 5343 5332 5327 5327 5323 5328 5337 5348 5353 5353 5361 5387 5419 5437 5450 5450 5469 5430 5469 5480 5480 5458 5461 5471 5475 5487 5500 5511